| time (UTC) | temp C | wind direction | speed KPH | gust KPH | rain 1hr cm | rain 24hr cm | rain mn cm | humidity % | barometer mb |
| 20260506182201 | 15 | 0 | 0.0 | 0.0 | 81.00 | 0.00 | 0.03 | 81 | 1017.8 |
| 20260506181001 | 15 | 0 | 0.0 | 0.0 | 81.00 | 0.00 | 0.03 | 82 | 1017.7 |
| 20260506175801 | 15 | 0 | 0.0 | 0.0 | 81.00 | 0.00 | 0.03 | 85 | 1017.7 |
| 20260506174601 | 14 | 0 | 0.0 | 0.0 | 81.00 | 0.00 | 0.03 | 87 | 1017.7 |
| 20260506173401 | 13 | 0 | 0.0 | 0.0 | 81.00 | 0.00 | 0.03 | 87 | 1017.7 |
| 20260506172201 | 13 | 0 | 0.0 | 0.0 | 81.00 | 0.00 | 0.03 | 91 | 1017.7 |
| 20260506171001 | 12 | 0 | 0.0 | 0.0 | 81.00 | 0.00 | 0.03 | 91 | 1017.7 |
| 20260506165801 | 12 | 0 | 0.0 | 0.0 | 80.98 | 0.00 | 0.00 | 93 | 1017.7 |
| 20260506164601 | 11 | 0 | 0.0 | 0.0 | 80.98 | 0.00 | 0.00 | 94 | 1017.7 |
| 20260506163401 | 10 | 0 | 0.0 | 0.0 | 80.98 | 0.00 | 0.00 | 94 | 1017.7 |
| 20260506162201 | 10 | 0 | 0.0 | 0.0 | 80.98 | 0.00 | 0.00 | 95 | 1017.8 |
| 20260506161001 | 10 | 0 | 0.0 | 0.0 | 80.98 | 0.00 | 0.00 | 96 | 1017.8 |
| 20260506155801 | 10 | 0 | 0.0 | 0.0 | 80.98 | 0.00 | 0.00 | 95 | 1017.8 |
| 20260506154601 | 9 | 0 | 0.0 | 0.0 | 80.98 | 0.00 | 0.00 | 96 | 1017.9 |
| 20260506153402 | 9 | 0 | 0.0 | 0.0 | 80.98 | 0.00 | 0.00 | 96 | 1017.9 |
| 20260506151001 | 8 | 0 | 0.0 | 0.0 | 80.98 | 0.00 | 0.00 | 98 | 1017.9 |
| 20260506044601 | 8 | 0 | 0.0 | 0.0 | 80.98 | 0.00 | 0.36 | 100 | 1014.0 |
| 20260506043401 | 8 | 0 | 0.0 | 0.0 | 80.98 | 0.00 | 0.36 | 100 | 1014.0 |
| 20260506042201 | 8 | 0 | 0.0 | 0.0 | 80.98 | 0.00 | 0.36 | 100 | 1014.0 |
| 20260506041001 | 8 | 0 | 0.0 | 0.0 | 80.98 | 0.00 | 0.36 | 100 | 1013.8 |
| 20260506035801 | 8 | 0 | 0.0 | 0.0 | 80.98 | 0.00 | 0.36 | 100 | 1013.7 |
| 20260506034601 | 8 | 0 | 0.0 | 0.0 | 80.98 | 0.00 | 0.36 | 100 | 1013.6 |
| 20260506033401 | 8 | 0 | 0.0 | 0.0 | 80.98 | 0.00 | 0.36 | 100 | 1013.4 |
| 20260506032201 | 8 | 0 | 0.0 | 0.0 | 80.98 | 0.00 | 0.36 | 100 | 1013.1 |
| 20260506031001 | 8 | 0 | 0.0 | 0.0 | 80.98 | 0.00 | 0.36 | 100 | 1012.9 |
| 20260506025801 | 8 | 0 | 0.0 | 0.0 | 80.98 | 0.00 | 0.36 | 100 | 1012.6 |
| 20260506024601 | 8 | 0 | 0.0 | 0.0 | 80.98 | 0.00 | 0.36 | 100 | 1012.6 |
| 20260506023401 | 8 | 0 | 0.0 | 0.0 | 80.98 | 0.00 | 0.36 | 100 | 1012.5 |
| 20260506022201 | 8 | 0 | 0.0 | 0.0 | 80.98 | 0.00 | 0.36 | 100 | 1012.5 |
| 20260506021001 | 8 | 0 | 0.0 | 0.0 | 80.98 | 0.00 | 0.36 | 99 | 1012.5 |
| 20260506015801 | 8 | 0 | 0.0 | 0.0 | 80.98 | 0.00 | 0.36 | 99 | 1012.4 |
| 20260506014601 | 8 | 0 | 0.0 | 0.0 | 80.98 | 0.00 | 0.36 | 99 | 1012.5 |
| 20260506013401 | 8 | 0 | 0.0 | 0.0 | 80.98 | 0.00 | 0.36 | 99 | 1012.5 |
| 20260506012201 | 8 | 0 | 0.0 | 0.0 | 80.98 | 0.00 | 0.36 | 99 | 1012.5 |
| 20260506011001 | 8 | 0 | 0.0 | 0.0 | 80.98 | 0.00 | 0.36 | 99 | 1012.4 |
| 20260506005801 | 8 | 0 | 0.0 | 0.0 | 80.98 | 0.00 | 0.36 | 99 | 1012.4 |
| 20260506004601 | 8 | 0 | 0.0 | 0.0 | 80.98 | 0.00 | 0.36 | 98 | 1012.4 |
| 20260506003401 | 8 | 0 | 0.0 | 0.0 | 80.98 | 0.00 | 0.36 | 99 | 1012.3 |
| 20260506002201 | 8 | 0 | 0.0 | 0.0 | 80.98 | 0.00 | 0.36 | 97 | 1012.3 |
| 20260506001001 | 8 | 0 | 0.0 | 0.0 | 80.98 | 0.00 | 0.36 | 97 | 1012.1 |
| 20260505235801 | 9 | 0 | 0.0 | 0.0 | 80.98 | 0.00 | 0.36 | 97 | 1012.1 |
| 20260505234601 | 9 | 0 | 0.0 | 0.0 | 80.98 | 0.00 | 0.36 | 97 | 1011.9 |
| 20260505233401 | 9 | 0 | 0.0 | 0.0 | 80.98 | 0.00 | 0.36 | 97 | 1011.9 |
| 20260505232201 | 9 | 0 | 0.0 | 0.0 | 80.98 | 0.00 | 0.36 | 96 | 1011.8 |
| 20260505231001 | 9 | 0 | 0.0 | 0.0 | 80.98 | 0.00 | 0.36 | 96 | 1011.8 |
| 20260505225801 | 9 | 0 | 0.0 | 0.0 | 80.98 | 0.00 | 0.36 | 95 | 1011.8 |
| 20260505224601 | 9 | 0 | 0.0 | 0.0 | 80.98 | 0.00 | 0.36 | 95 | 1011.8 |
| 20260505223401 | 9 | 0 | 0.0 | 0.0 | 80.98 | 0.00 | 0.36 | 95 | 1011.8 |
| 20260505222201 | 10 | 0 | 0.0 | 0.0 | 80.98 | 0.00 | 0.36 | 94 | 1011.7 |
| 20260505221001 | 10 | 0 | 0.0 | 0.0 | 80.98 | 0.00 | 0.36 | 94 | 1011.8 |
| 20260505215801 | 10 | 0 | 0.0 | 0.0 | 80.98 | 0.00 | 0.36 | 92 | 1011.8 |
| 20260505214601 | 10 | 0 | 0.0 | 0.0 | 80.98 | 0.00 | 0.36 | 92 | 1011.9 |
| 20260505213401 | 11 | 0 | 0.0 | 0.0 | 80.98 | 0.00 | 0.36 | 90 | 1011.8 |
| 20260505212201 | 11 | 0 | 0.0 | 0.0 | 80.98 | 0.00 | 0.36 | 90 | 1011.9 |
| 20260505211001 | 11 | 0 | 0.0 | 0.0 | 80.98 | 0.00 | 0.36 | 91 | 1010.9 |
| 20260505205801 | 11 | 0 | 0.0 | 0.0 | 80.98 | 0.00 | 0.36 | 91 | 1011.8 |
| 20260505204601 | 10 | 0 | 0.0 | 0.0 | 80.98 | 0.00 | 0.36 | 92 | 1011.8 |
| 20260505203401 | 10 | 0 | 0.0 | 0.0 | 80.98 | 0.00 | 0.36 | 90 | 1011.7 |
| 20260505202201 | 10 | 0 | 0.0 | 0.0 | 80.98 | 0.00 | 0.36 | 91 | 1011.7 |
| 20260505201001 | 10 | 0 | 0.0 | 0.0 | 80.98 | 0.00 | 0.36 | 91 | 1011.9 |
| 20260505195801 | 10 | 0 | 0.0 | 0.0 | 80.98 | 0.00 | 0.36 | 92 | 1011.9 |
| 20260505194601 | 10 | 0 | 0.0 | 0.0 | 80.98 | 0.00 | 0.36 | 92 | 1012.0 |
| 20260505193401 | 10 | 0 | 0.0 | 0.0 | 80.98 | 0.00 | 0.36 | 92 | 1012.0 |
| 20260505192201 | 10 | 0 | 0.0 | 0.0 | 80.98 | 0.00 | 0.36 | 92 | 1011.7 |
| 20260505191001 | 10 | 0 | 0.0 | 0.0 | 80.98 | 0.00 | 0.36 | 91 | 1011.8 |
| 20260505185801 | 10 | 0 | 0.0 | 0.0 | 80.98 | 0.00 | 0.36 | 89 | 1011.8 |
| 20260505184601 | 10 | 0 | 0.0 | 0.0 | 80.98 | 0.00 | 0.36 | 90 | 1011.6 |
| 20260505183401 | 10 | 0 | 0.0 | 0.0 | 80.98 | 0.00 | 0.36 | 90 | 1011.4 |